User: anonymous   Login
Location: Heidgraben
(53.7081°N, 9.6576°E)
Time: 18:29:36
(UTC+00:00)
Language:

Cosmos 371 Rocket - Orbit

View from above orbital plane
View from above orbital plane
View from above satellite
View from above satellite

Ground track
Ground track

The orbit data is extracted from the following two-line orbital elements,

1  4579U 70083B   20270.50811141  .00000005  00000-0  71740-5 0  9994
2  4579  74.0026 320.9143 0009851  32.8177 327.3598 14.60489619649564
Epoch (UTC): 26 September 2020 12:11:40
Eccentricity: 0.0009851
inclination: 74.0026°
perigee height: 684 km
apogee height: 698 km
right ascension of ascending node: 320.9143°
argument of perigee: 32.8177°
revolutions per day: 14.60489619
mean anomaly at epoch: 327.3598°
orbit number at epoch: 64956

The dashed part of the orbit path shows where the satellite is in the earth's shadow,  

DLR